Location: Black Creek
(40.9000°S, 175.5500°E)
Time: 18:14:55
(UTC+00:00)

Cosmos 1378 Rocket - Pass Details

Date: 04 August 2024
Orbit: 597 x 623 km, 82.5° (Epoch: 17 September)

Event Time Altitude Azimuth Distance (km) Brightness Sun altitude
Rises 18:22:01 0° 330° (NNW) 2,848 6.8 -11.3°
Reaches altitude 10° 18:24:24 10° 319° (NW) 1,958 5.9 -10.9°
Maximum altitude 18:28:17 32° 256° (WSW) 1,074 4.2 -10.2°
Drops below altitude 10° 18:32:15 10° 192° (SSW) 1,998 5.9 -9.5°
Sets 18:34:42 0° 182° (S) 2,916 6.8 -9.0°
